Home   Weather   Peterborough   Past weeks

Flag for United Kingdom Past Weather in Peterborough, England, United Kingdom — Yesterday and Last 2 Weeks

Now
52 °F

Passing clouds.


Feels Like: 48 °F
Forecast: 46 / 59 °F
Wind: 10 mph from West

Location: Wittering

Current Time: Sep 30, 2016 at 4:17:31 AM

Latest Report: Sep 29, 2016 at 11:50 PM


Visibility: N/A

Pressure: 29.89 "Hg

Humidity: 77%

Dew Point: 45 °F

Location of PeterboroughLocation

Past Weather in Peterborough — Graph

°F

Peterborough Temperature Yesterday

Maximum temperature yesterday: 64 °F (at 12:50 AM)
Minimum temperature yesterday: 52 °F (at 11:50 PM)
Average temperature yesterday: 60 °F

High & Low Weather Summary for the Past Weeks

 TemperatureHumidityPressure
High75 °F (Sep 15, 3:50 PM)100% (Sep 15, 1:50 AM)30.24 "Hg (Sep 15, 1:50 AM)
Low45 °F (Sep 23, 4:50 AM)49% (Sep 29, 3:50 PM)29.74 "Hg (Sep 25, 3:50 AM)
Average59 °F84%30.05 "Hg
* Reported Sep 14 11:50 PM — Sep 29 11:50 PM, Peterborough, Weather by CustomWeather, © 2016

Note: Actual official high and low records may vary slightly from our data, if they occured in-between our weather recording intervals... More about our weather records

Advertising

Peterborough Weather History for the Previous 24 Hours

Scroll right to see more
 ConditionsComfort  
Time TempWeatherWind HumidityBarometerVisibility
11:50 PM
Thu, Sep 29
52 °FPassing clouds.10 mph77%29.89 "HgN/A
10:50 PM54 °FPassing clouds.12 mph72%29.89 "HgN/A
9:50 PM54 °FCool.9 mph72%29.89 "HgN/A
8:50 PM54 °FCool.12 mph72%29.89 "HgN/A
7:50 PM55 °FCool.9 mph63%29.89 "HgN/A
6:50 PM59 °FRefreshingly cool.13 mph55%29.89 "HgN/A
5:50 PM61 °FRefreshingly cool.16 mph52%29.86 "HgN/A
4:50 PM63 °FPassing clouds.22 mph49%29.86 "HgN/A
3:50 PM64 °FSunny.22 mph49%29.86 "Hg10 mi
2:50 PM64 °FSunny.21 mph52%29.86 "Hg10 mi
12:50 PM63 °FBroken clouds.20 mph68%29.86 "HgN/A
11:50 AM61 °FScattered clouds.21 mph68%29.86 "HgN/A
10:50 AM61 °FScattered clouds.20 mph72%29.86 "HgN/A
9:50 AM59 °FScattered clouds.20 mph77%29.86 "HgN/A
8:50 AM59 °FBroken clouds.16 mph94%29.86 "HgN/A
7:50 AM59 °FSprinkles. Broken clouds.17 mph94%29.86 "HgN/A
6:50 AM63 °FPartly cloudy.17 mph88%29.86 "Hg2 mi
5:50 AM64 °FPassing clouds.21 mph78%29.86 "HgN/A
4:50 AM64 °FPassing clouds.16 mph83%29.89 "HgN/A
Weather by CustomWeather, © 2016

See weather overviewHow to use our weather pages